Tracking 31027 objects as of 19-Jul-2025
HD Live streaming from Space Station
objects crossing your sky now

STARLINK-1893

Track STARLINK-1893 now!
10-day predictions
STARLINK-1893 is classified as:


NORAD ID: 46786
Int'l Code: 2020-074AZ
Perigee: 553.4 km
Apogee: 555.3 km
Inclination: 53.1 °
Period: 95.6 minutes
Semi major axis: 6925 km
RCS: Unknown
Launch date: October 24, 2020
Source: United States (US)
Launch site: AIR FORCE EASTERN TEST RANGE (AFETR)
Your satellite tracking list
SES-6
Track 1 satellite(s)




NASA's NSSDC Master Catalog

Two Line Element Set (TLE):
1 46786U 20074AZ  25199.46674392  .00000178  00000-0  30834-4 0  9999
2 46786  53.0543 263.0873 0001382  92.5841 267.5306 15.06397443261791
Source of the keplerian elements: AFSPC